DLH322 EDDF-LICJ

Flight info

Callsign DLH322
Flight time 1h 56m
Altitude 33000
Route ANEKI2L ANEKI Y163 NATOR DCT TRA DCT RIPUS/N0449F350 DCT GERSA DCT SOSON DCT ODINA DCT RONAB DCT GIANO
Aircraft A321/M-SDE2E3FGIJ1LORWXYZ/HB1

Departure

Time 2026-05-05 07:37
Airport Frankfurt Main Airport (EDDF)

Arrival

Time 2026-05-05 09:34
Airport Falcone–Borsellino Airport (LICJ)
Time Latitude Longitude Altitude Speed Heading
2026-05-05 07:00 50.04423 8.56275 363 ft 0 kts 165°
2026-05-05 07:25 50.04433 8.56270 363 ft 2 kts 165°
2026-05-05 07:25 50.04448 8.56264 363 ft 2 kts 165°
2026-05-05 07:26 50.04462 8.56263 363 ft 2 kts 191°
2026-05-05 07:26 50.04477 8.56270 363 ft 2 kts 210°
2026-05-05 07:26 50.04488 8.56284 363 ft 2 kts 230°
2026-05-05 07:26 50.04496 8.56301 363 ft 0 kts 247°
2026-05-05 07:27 50.04498 8.56311 363 ft 1 kts 250°
2026-05-05 07:27 50.04498 8.56312 363 ft 0 kts 250°
2026-05-05 07:30 50.04495 8.56300 363 ft 2 kts 250°
2026-05-05 07:30 50.04485 8.56254 363 ft 6 kts 250°
2026-05-05 07:31 50.04464 8.56170 363 ft 9 kts 249°
2026-05-05 07:31 50.04440 8.56076 363 ft 9 kts 244°
2026-05-05 07:31 50.04385 8.56034 363 ft 9 kts 171°
2026-05-05 07:31 50.04321 8.56067 363 ft 9 kts 165°
2026-05-05 07:32 50.04261 8.56028 363 ft 10 kts 238°
2026-05-05 07:32 50.04234 8.55922 363 ft 11 kts 250°
2026-05-05 07:32 50.04194 8.55755 363 ft 21 kts 250°
2026-05-05 07:32 50.04134 8.55506 363 ft 24 kts 250°
2026-05-05 07:33 50.04076 8.55263 363 ft 23 kts 250°
2026-05-05 07:33 50.04021 8.55033 363 ft 21 kts 250°
2026-05-05 07:33 50.03971 8.54819 363 ft 21 kts 250°
2026-05-05 07:33 50.03916 8.54591 363 ft 21 kts 250°
2026-05-05 07:34 50.03865 8.54384 363 ft 14 kts 246°
2026-05-05 07:34 50.03807 8.54252 363 ft 14 kts 243°
2026-05-05 07:34 50.03771 8.54105 363 ft 16 kts 250°
2026-05-05 07:34 50.03715 8.53877 363 ft 27 kts 250°
2026-05-05 07:35 50.03651 8.53610 363 ft 25 kts 249°
2026-05-05 07:35 50.03589 8.53361 363 ft 23 kts 250°
2026-05-05 07:35 50.03534 8.53129 363 ft 21 kts 250°
2026-05-05 07:35 50.03482 8.52913 363 ft 20 kts 250°
2026-05-05 07:36 50.03427 8.52717 363 ft 19 kts 248°
2026-05-05 07:36 50.03387 8.52608 363 ft 5 kts 226°
2026-05-05 07:36 50.03348 8.52592 363 ft 6 kts 178°
2026-05-05 07:36 50.03232 8.52595 363 ft 44 kts 180°
2026-05-05 07:37 50.02644 8.52600 363 ft 121 kts 180°
2026-05-05 07:37 50.01577 8.52609 392 ft 179 kts 180°
2026-05-05 07:37 50.00336 8.52610 1125 ft 178 kts 180°
2026-05-05 07:37 49.99118 8.52613 1870 ft 172 kts 180°
2026-05-05 07:38 49.97904 8.52685 2193 ft 182 kts 176°
2026-05-05 07:38 49.96588 8.52817 2457 ft 195 kts 176°
2026-05-05 07:38 49.95172 8.52953 2726 ft 212 kts 176°
2026-05-05 07:38 49.93649 8.53082 3004 ft 230 kts 177°
2026-05-05 07:39 49.91995 8.53210 3486 ft 239 kts 177°
2026-05-05 07:39 49.90356 8.53326 4155 ft 242 kts 177°
2026-05-05 07:39 49.88594 8.53451 4566 ft 258 kts 178°
2026-05-05 07:39 49.86782 8.53580 5214 ft 263 kts 178°
2026-05-05 07:40 49.84948 8.53710 6002 ft 264 kts 179°
2026-05-05 07:40 49.83126 8.53834 6768 ft 264 kts 179°
2026-05-05 07:40 49.81293 8.53956 7494 ft 267 kts 179°
2026-05-05 07:40 49.79423 8.54078 8217 ft 269 kts 180°
2026-05-05 07:41 49.77556 8.54062 8925 ft 270 kts 185°
2026-05-05 07:41 49.75682 8.53846 9616 ft 272 kts 186°
2026-05-05 07:41 49.73788 8.53593 10276 ft 275 kts 186°
2026-05-05 07:41 49.71826 8.53328 10617 ft 290 kts 186°
2026-05-05 07:42 49.69761 8.53051 10903 ft 305 kts 186°
2026-05-05 07:42 49.67575 8.52759 11180 ft 321 kts 186°
2026-05-05 07:42 49.65310 8.52459 11510 ft 333 kts 186°
2026-05-05 07:42 49.62966 8.52150 12104 ft 337 kts 186°
2026-05-05 07:43 49.60635 8.51844 12756 ft 339 kts 186°
2026-05-05 07:43 49.58260 8.51533 13359 ft 341 kts 186°
2026-05-05 07:43 49.55865 8.51219 13948 ft 344 kts 186°
2026-05-05 07:43 49.53458 8.50903 14512 ft 347 kts 186°
2026-05-05 07:44 49.51037 8.50585 15079 ft 350 kts 187°
2026-05-05 07:44 49.48600 8.50265 15628 ft 353 kts 187°
2026-05-05 07:44 49.46138 8.49942 16155 ft 356 kts 187°
2026-05-05 07:44 49.43642 8.49614 16694 ft 359 kts 187°
2026-05-05 07:45 49.41179 8.49290 17199 ft 361 kts 187°
2026-05-05 07:45 49.38623 8.48955 17703 ft 364 kts 187°
2026-05-05 07:45 49.36117 8.48628 18199 ft 367 kts 187°
2026-05-05 07:45 49.33550 8.48293 18680 ft 369 kts 187°
2026-05-05 07:46 49.30959 8.47956 19157 ft 372 kts 187°
2026-05-05 07:46 49.28384 8.47622 19614 ft 374 kts 187°
2026-05-05 07:46 49.25743 8.47278 20061 ft 377 kts 187°
2026-05-05 07:46 49.23141 8.46940 20496 ft 380 kts 187°
2026-05-05 07:47 49.20487 8.46595 20950 ft 381 kts 187°
2026-05-05 07:47 49.17827 8.46248 21374 ft 384 kts 187°
2026-05-05 07:47 49.15132 8.45897 21787 ft 386 kts 187°
2026-05-05 07:47 49.12444 8.45549 22204 ft 388 kts 187°
2026-05-05 07:48 49.09757 8.45200 22602 ft 390 kts 188°
2026-05-05 07:48 49.07053 8.44735 22976 ft 391 kts 191°
2026-05-05 07:48 49.04362 8.44038 23338 ft 393 kts 194°
2026-05-05 07:48 49.01703 8.43137 23706 ft 394 kts 195°
2026-05-05 07:49 48.98992 8.42192 24065 ft 396 kts 195°
2026-05-05 07:49 48.96301 8.41256 24405 ft 398 kts 195°
2026-05-05 07:49 48.93611 8.40322 24747 ft 400 kts 195°
2026-05-05 07:49 48.90894 8.39380 25061 ft 402 kts 195°
2026-05-05 07:50 48.88157 8.38429 25386 ft 404 kts 195°
2026-05-05 07:50 48.85416 8.37478 25723 ft 405 kts 195°
2026-05-05 07:50 48.82652 8.36522 26045 ft 407 kts 195°
2026-05-05 07:50 48.79864 8.35559 26358 ft 408 kts 195°
2026-05-05 07:51 48.77104 8.34588 26668 ft 410 kts 195°
2026-05-05 07:51 48.74302 8.33566 26964 ft 411 kts 195°
2026-05-05 07:51 48.71524 8.32545 27249 ft 413 kts 195°
2026-05-05 07:51 48.68726 8.31518 27540 ft 415 kts 195°
2026-05-05 07:52 48.65881 8.30477 27821 ft 416 kts 195°
2026-05-05 07:52 48.63054 8.29444 28097 ft 418 kts 195°
2026-05-05 07:52 48.60229 8.28416 28427 ft 417 kts 195°
2026-05-05 07:52 48.57383 8.27383 28818 ft 416 kts 195°
2026-05-05 07:53 48.54575 8.26386 29192 ft 415 kts 194°
2026-05-05 07:53 48.51696 8.25668 29535 ft 416 kts 189°
2026-05-05 07:53 48.48794 8.25346 29852 ft 417 kts 184°
2026-05-05 07:53 48.45918 8.25416 30170 ft 418 kts 180°
2026-05-05 07:54 48.42969 8.25888 30486 ft 420 kts 175°
2026-05-05 07:54 48.40074 8.26565 30775 ft 420 kts 175°
2026-05-05 07:54 48.37181 8.27269 31075 ft 420 kts 175°
2026-05-05 07:54 48.34326 8.27966 31338 ft 420 kts 175°
2026-05-05 07:55 48.31411 8.28674 31557 ft 421 kts 175°
2026-05-05 07:55 48.28508 8.29375 31759 ft 422 kts 175°
2026-05-05 07:55 48.25590 8.30078 31974 ft 423 kts 175°
2026-05-05 07:55 48.22655 8.30785 32193 ft 424 kts 175°
2026-05-05 07:56 48.19764 8.31479 32393 ft 425 kts 175°
2026-05-05 07:56 48.16831 8.32183 32586 ft 426 kts 175°
2026-05-05 07:56 48.13908 8.32894 32787 ft 427 kts 175°
2026-05-05 07:56 48.10969 8.33611 32890 ft 428 kts 175°
2026-05-05 07:57 48.05058 8.35047 32897 ft 429 kts 175°
2026-05-05 07:57 47.99171 8.36471 32898 ft 429 kts 175°
2026-05-05 07:58 47.93316 8.37881 32899 ft 429 kts 175°
2026-05-05 07:58 47.87389 8.39306 32899 ft 429 kts 175°
2026-05-05 07:59 47.81494 8.40718 32899 ft 429 kts 175°
2026-05-05 07:59 47.75575 8.42131 32898 ft 429 kts 175°
2026-05-05 08:00 47.69647 8.43530 32898 ft 429 kts 176°
2026-05-05 08:00 47.63694 8.44484 32899 ft 428 kts 178°
2026-05-05 08:01 47.57737 8.45369 32899 ft 428 kts 178°
2026-05-05 08:01 47.51786 8.46247 32898 ft 428 kts 178°
2026-05-05 08:02 47.45820 8.47124 32899 ft 428 kts 178°
2026-05-05 08:02 47.39881 8.47994 32899 ft 428 kts 178°
2026-05-05 08:03 47.33902 8.48865 32898 ft 429 kts 178°
2026-05-05 08:03 47.27954 8.49731 32898 ft 430 kts 178°
2026-05-05 08:04 47.21912 8.50612 33145 ft 434 kts 178°
2026-05-05 08:04 47.18898 8.51054 33392 ft 434 kts 178°
2026-05-05 08:04 47.15897 8.51492 33630 ft 433 kts 178°
2026-05-05 08:05 47.12876 8.51932 33858 ft 432 kts 178°
2026-05-05 08:05 47.09875 8.52366 34073 ft 432 kts 178°
2026-05-05 08:05 47.06853 8.52802 34277 ft 432 kts 178°
2026-05-05 08:05 47.03888 8.53229 34486 ft 432 kts 178°
2026-05-05 08:06 47.00862 8.53668 34692 ft 431 kts 178°
2026-05-05 08:06 46.97870 8.54103 34870 ft 431 kts 178°
2026-05-05 08:06 46.91877 8.54970 34895 ft 431 kts 178°
2026-05-05 08:07 46.85939 8.55824 34898 ft 430 kts 178°
2026-05-05 08:07 46.79926 8.56685 34901 ft 430 kts 178°
2026-05-05 08:08 46.73971 8.57536 34907 ft 430 kts 178°
2026-05-05 08:08 46.67966 8.58390 34916 ft 430 kts 178°
2026-05-05 08:09 46.62002 8.59238 34922 ft 430 kts 178°
2026-05-05 08:09 46.56012 8.60092 34924 ft 430 kts 178°
2026-05-05 08:10 46.50033 8.60943 34926 ft 430 kts 178°
2026-05-05 08:10 46.44046 8.61790 34926 ft 430 kts 178°
2026-05-05 08:11 46.38084 8.62631 34926 ft 430 kts 178°
2026-05-05 08:11 46.32137 8.63468 34926 ft 430 kts 178°
2026-05-05 08:12 46.26193 8.64300 34926 ft 430 kts 178°
2026-05-05 08:12 46.20237 8.65133 34926 ft 430 kts 178°
2026-05-05 08:13 46.14263 8.66207 34934 ft 432 kts 174°
2026-05-05 08:13 46.08410 8.68141 34948 ft 435 kts 168°
2026-05-05 08:14 46.02695 8.70980 34964 ft 438 kts 162°
2026-05-05 08:14 45.97043 8.74248 34974 ft 437 kts 162°
2026-05-05 08:15 45.91382 8.77500 34978 ft 437 kts 162°
2026-05-05 08:15 45.85719 8.80746 34981 ft 437 kts 162°
2026-05-05 08:16 45.80082 8.83972 34981 ft 438 kts 162°
2026-05-05 08:16 45.74390 8.87219 34981 ft 438 kts 162°
2026-05-05 08:17 45.68727 8.90446 34981 ft 438 kts 162°
2026-05-05 08:17 45.63055 8.93670 34983 ft 438 kts 162°
2026-05-05 08:18 45.57380 8.96887 34985 ft 438 kts 162°
2026-05-05 08:18 45.51696 9.00105 34987 ft 439 kts 162°
2026-05-05 08:19 45.46021 9.03310 34988 ft 439 kts 162°
2026-05-05 08:19 45.40350 9.06505 34986 ft 439 kts 162°
2026-05-05 08:20 45.34705 9.09679 34984 ft 439 kts 162°
2026-05-05 08:20 45.29005 9.12877 34983 ft 439 kts 162°
2026-05-05 08:21 45.23304 9.16068 34983 ft 439 kts 162°
2026-05-05 08:21 45.17648 9.19229 34983 ft 439 kts 162°
2026-05-05 08:22 45.11980 9.22388 34983 ft 439 kts 162°
2026-05-05 08:22 45.06290 9.25552 34981 ft 439 kts 162°
2026-05-05 08:23 45.00602 9.28710 34976 ft 439 kts 162°
2026-05-05 08:23 44.94942 9.31845 34968 ft 439 kts 162°
2026-05-05 08:24 44.89241 9.34996 34962 ft 438 kts 162°
2026-05-05 08:24 44.83574 9.38120 34957 ft 439 kts 163°
2026-05-05 08:25 44.77912 9.41237 34955 ft 439 kts 163°
2026-05-05 08:25 44.72215 9.44365 34954 ft 438 kts 163°
2026-05-05 08:26 44.66577 9.47455 34955 ft 438 kts 163°
2026-05-05 08:26 44.60901 9.50558 34954 ft 438 kts 163°
2026-05-05 08:27 44.55240 9.53647 34954 ft 438 kts 163°
2026-05-05 08:27 44.49567 9.56737 34954 ft 438 kts 163°
2026-05-05 08:28 44.43903 9.59814 34954 ft 438 kts 163°
2026-05-05 08:28 44.38219 9.62896 34955 ft 438 kts 163°
2026-05-05 08:29 44.32574 9.65951 34954 ft 437 kts 164°
2026-05-05 08:30 44.24104 9.70523 34954 ft 437 kts 164°
2026-05-05 08:30 44.18437 9.73574 34954 ft 437 kts 165°
2026-05-05 08:31 44.12783 9.76611 34954 ft 437 kts 165°
2026-05-05 08:31 44.07132 9.79639 34954 ft 437 kts 165°
2026-05-05 08:32 44.01466 9.82673 34954 ft 437 kts 165°
2026-05-05 08:32 43.95796 9.85700 34954 ft 437 kts 165°
2026-05-05 08:33 43.90171 9.88697 34958 ft 437 kts 165°
2026-05-05 08:33 43.84511 9.91707 34965 ft 437 kts 165°
2026-05-05 08:34 43.78847 9.94713 34973 ft 437 kts 165°
2026-05-05 08:34 43.73180 9.97714 34978 ft 437 kts 165°
2026-05-05 08:35 43.67543 10.00694 34978 ft 437 kts 165°
2026-05-05 08:35 43.61862 10.03691 34977 ft 438 kts 165°
2026-05-05 08:36 43.56185 10.06679 34977 ft 438 kts 165°
2026-05-05 08:36 43.50495 10.09668 34978 ft 438 kts 165°
2026-05-05 08:37 43.44830 10.12640 34980 ft 438 kts 165°
2026-05-05 08:37 43.39139 10.15617 34981 ft 439 kts 165°
2026-05-05 08:38 43.33443 10.18590 34981 ft 440 kts 165°
2026-05-05 08:38 43.27711 10.21577 34981 ft 440 kts 165°
2026-05-05 08:39 43.22025 10.24537 34981 ft 441 kts 165°
2026-05-05 08:39 43.16303 10.27507 34981 ft 441 kts 165°
2026-05-05 08:40 43.10566 10.30477 34980 ft 442 kts 165°
2026-05-05 08:40 43.04829 10.33442 34981 ft 443 kts 165°
2026-05-05 08:41 42.99059 10.36421 34981 ft 443 kts 165°
2026-05-05 08:41 42.93314 10.39378 34981 ft 443 kts 165°
2026-05-05 08:42 42.87555 10.42337 34981 ft 443 kts 165°
2026-05-05 08:42 42.81827 10.45274 34981 ft 444 kts 165°
2026-05-05 08:43 42.76052 10.48230 34981 ft 444 kts 165°
2026-05-05 08:43 42.70285 10.51175 34981 ft 444 kts 165°
2026-05-05 08:44 42.64528 10.54110 34983 ft 444 kts 165°
2026-05-05 08:44 42.58764 10.57043 34989 ft 444 kts 165°
2026-05-05 08:45 42.52991 10.59975 34997 ft 444 kts 166°
2026-05-05 08:45 42.47237 10.62890 35003 ft 444 kts 166°
2026-05-05 08:46 42.41459 10.65812 35005 ft 444 kts 166°
2026-05-05 08:46 42.35715 10.68712 35007 ft 444 kts 166°
2026-05-05 08:47 42.29922 10.71629 35007 ft 444 kts 166°
2026-05-05 08:47 42.24178 10.74517 35007 ft 444 kts 166°
2026-05-05 08:48 42.18413 10.77410 35007 ft 444 kts 166°
2026-05-05 08:48 42.12629 10.80307 35007 ft 444 kts 166°
2026-05-05 08:49 42.06850 10.83196 35008 ft 445 kts 166°
2026-05-05 08:49 42.01057 10.86085 35011 ft 445 kts 166°
2026-05-05 08:50 41.95260 10.88972 35014 ft 447 kts 166°
2026-05-05 08:50 41.89449 10.91859 35022 ft 448 kts 166°
2026-05-05 08:51 41.83618 10.94751 35029 ft 448 kts 166°
2026-05-05 08:51 41.77805 10.97628 35037 ft 449 kts 166°
2026-05-05 08:52 41.71967 11.00513 35043 ft 449 kts 166°
2026-05-05 08:52 41.66122 11.03394 35050 ft 449 kts 166°
2026-05-05 08:53 41.60299 11.06261 35056 ft 449 kts 166°
2026-05-05 08:53 41.54432 11.09143 35060 ft 450 kts 166°
2026-05-05 08:54 41.48584 11.12010 35061 ft 450 kts 166°
2026-05-05 08:54 41.42731 11.14874 35061 ft 450 kts 166°
2026-05-05 08:55 41.36834 11.17754 35062 ft 451 kts 166°
2026-05-05 08:55 41.30995 11.20599 35062 ft 451 kts 166°
2026-05-05 08:56 41.25120 11.23457 35062 ft 451 kts 166°
2026-05-05 08:56 41.19239 11.26313 35062 ft 452 kts 166°
2026-05-05 08:57 41.13358 11.29164 35062 ft 452 kts 166°
2026-05-05 08:57 41.07484 11.32005 35062 ft 452 kts 166°
2026-05-05 08:58 41.01581 11.34855 35062 ft 452 kts 166°
2026-05-05 08:58 40.95665 11.37705 35062 ft 453 kts 166°
2026-05-05 08:59 40.89777 11.40537 35062 ft 454 kts 166°
2026-05-05 08:59 40.83877 11.43367 35062 ft 454 kts 166°
2026-05-05 09:00 40.77958 11.46203 35061 ft 454 kts 166°
2026-05-05 09:00 40.72010 11.49048 35062 ft 455 kts 166°
2026-05-05 09:01 40.66095 11.51872 35061 ft 455 kts 166°
2026-05-05 09:01 40.60146 11.54705 35062 ft 456 kts 166°
2026-05-05 09:02 40.54207 11.57528 35061 ft 456 kts 165°
2026-05-05 09:02 40.48286 11.60338 35062 ft 456 kts 165°
2026-05-05 09:03 40.42337 11.63157 35061 ft 456 kts 165°
2026-05-05 09:03 40.36357 11.65984 35061 ft 457 kts 166°
2026-05-05 09:04 40.30430 11.68781 35061 ft 456 kts 166°
2026-05-05 09:04 40.24466 11.71587 35062 ft 457 kts 166°
2026-05-05 09:05 40.18519 11.74384 35062 ft 457 kts 166°
2026-05-05 09:05 40.12545 11.77187 35062 ft 457 kts 166°
2026-05-05 09:06 40.06554 11.79991 35063 ft 458 kts 166°
2026-05-05 09:06 40.00593 11.82777 35066 ft 458 kts 166°
2026-05-05 09:07 39.94617 11.85562 35069 ft 458 kts 166°
2026-05-05 09:07 39.88628 11.88351 35072 ft 458 kts 165°
2026-05-05 09:08 39.82727 11.91514 35075 ft 461 kts 162°
2026-05-05 09:08 39.76898 11.94809 35078 ft 461 kts 162°
2026-05-05 09:09 39.71053 11.98101 35082 ft 461 kts 162°
2026-05-05 09:09 39.65151 12.01416 35085 ft 462 kts 162°
2026-05-05 09:10 39.59300 12.04696 35088 ft 462 kts 162°
2026-05-05 09:10 39.53400 12.07995 34741 ft 465 kts 162°
2026-05-05 09:10 39.50421 12.09659 34097 ft 466 kts 162°
2026-05-05 09:11 39.47486 12.11298 33417 ft 467 kts 162°
2026-05-05 09:11 39.44517 12.12951 32700 ft 468 kts 162°
2026-05-05 09:11 39.41515 12.14621 31963 ft 469 kts 161°
2026-05-05 09:11 39.38525 12.16283 31217 ft 471 kts 161°
2026-05-05 09:12 39.35519 12.17952 30454 ft 472 kts 161°
2026-05-05 09:12 39.32518 12.19619 29680 ft 474 kts 161°
2026-05-05 09:12 39.29511 12.21289 28982 ft 472 kts 161°
2026-05-05 09:12 39.26537 12.22941 28484 ft 467 kts 161°
2026-05-05 09:13 39.23574 12.24585 27976 ft 461 kts 161°
2026-05-05 09:13 39.20679 12.26189 27474 ft 456 kts 161°
2026-05-05 09:13 39.17769 12.27799 26963 ft 451 kts 161°
2026-05-05 09:13 39.14929 12.29367 26458 ft 446 kts 160°
2026-05-05 09:14 39.12085 12.30936 25941 ft 442 kts 160°
2026-05-05 09:14 39.09277 12.32484 25424 ft 438 kts 160°
2026-05-05 09:14 39.06501 12.34012 24913 ft 434 kts 160°
2026-05-05 09:14 39.03770 12.35514 24408 ft 430 kts 160°
2026-05-05 09:15 39.01011 12.37030 23897 ft 426 kts 160°
2026-05-05 09:15 38.98325 12.38504 23403 ft 422 kts 160°
2026-05-05 09:15 38.95660 12.39967 22909 ft 419 kts 160°
2026-05-05 09:15 38.92976 12.41440 22405 ft 416 kts 160°
2026-05-05 09:16 38.90370 12.42872 21909 ft 413 kts 159°
2026-05-05 09:16 38.87863 12.44770 21374 ft 417 kts 144°
2026-05-05 09:16 38.85855 12.47427 20884 ft 418 kts 127°
2026-05-05 09:16 38.84367 12.50610 20424 ft 417 kts 119°
2026-05-05 09:17 38.83051 12.53865 19938 ft 415 kts 118°
2026-05-05 09:17 38.81743 12.57169 19443 ft 413 kts 118°
2026-05-05 09:17 38.80448 12.60404 18957 ft 411 kts 118°
2026-05-05 09:17 38.79118 12.63685 18460 ft 409 kts 118°
2026-05-05 09:18 38.77817 12.66865 17976 ft 407 kts 119°
2026-05-05 09:18 38.76496 12.70073 17486 ft 405 kts 120°
2026-05-05 09:18 38.75181 12.73253 17003 ft 403 kts 120°
2026-05-05 09:18 38.73875 12.76405 16520 ft 400 kts 120°
2026-05-05 09:19 38.72590 12.79500 16047 ft 398 kts 120°
2026-05-05 09:19 38.71291 12.82624 15565 ft 396 kts 120°
2026-05-05 09:19 38.70005 12.85714 15086 ft 393 kts 120°
2026-05-05 09:19 38.68726 12.88784 14607 ft 391 kts 119°
2026-05-05 09:20 38.67448 12.91848 14124 ft 388 kts 119°
2026-05-05 09:20 38.66194 12.94852 13647 ft 386 kts 119°
2026-05-05 09:20 38.64934 12.97866 13164 ft 384 kts 119°
2026-05-05 09:20 38.63675 13.00874 12676 ft 381 kts 119°
2026-05-05 09:21 38.62430 13.03847 12192 ft 379 kts 119°
2026-05-05 09:21 38.61190 13.06803 11708 ft 377 kts 119°
2026-05-05 09:21 38.59953 13.09748 11234 ft 374 kts 119°
2026-05-05 09:21 38.58755 13.12600 10971 ft 364 kts 119°
2026-05-05 09:22 38.57565 13.15430 10767 ft 354 kts 119°
2026-05-05 09:22 38.56415 13.18164 10621 ft 342 kts 119°
2026-05-05 09:22 38.55293 13.20740 10474 ft 330 kts 125°
2026-05-05 09:22 38.53712 13.22807 10222 ft 319 kts 149°
2026-05-05 09:23 38.51777 13.24026 10104 ft 305 kts 159°
2026-05-05 09:23 38.49845 13.25014 10097 ft 290 kts 160°
2026-05-05 09:23 38.48003 13.25948 9993 ft 279 kts 160°
2026-05-05 09:23 38.46263 13.26902 9830 ft 273 kts 152°
2026-05-05 09:24 38.44861 13.28520 9479 ft 275 kts 124°
2026-05-05 09:24 38.43933 13.30650 9038 ft 279 kts 117°
2026-05-05 09:24 38.43070 13.32903 8557 ft 284 kts 116°
2026-05-05 09:24 38.42209 13.35135 8220 ft 282 kts 117°
2026-05-05 09:25 38.41328 13.37367 7906 ft 279 kts 117°
2026-05-05 09:25 38.40455 13.39541 7520 ft 274 kts 117°
2026-05-05 09:25 38.39472 13.41580 7153 ft 267 kts 135°
2026-05-05 09:25 38.37925 13.42764 6770 ft 259 kts 163°
2026-05-05 09:26 38.36235 13.43413 6601 ft 248 kts 165°
2026-05-05 09:26 38.34607 13.44033 6404 ft 237 kts 163°
2026-05-05 09:26 38.33076 13.44642 6214 ft 227 kts 163°
2026-05-05 09:26 38.31600 13.45133 6074 ft 211 kts 175°
2026-05-05 09:27 38.30180 13.44809 5542 ft 212 kts 206°
2026-05-05 09:27 38.29101 13.43587 5020 ft 212 kts 237°
2026-05-05 09:27 38.28468 13.41907 4588 ft 212 kts 247°
2026-05-05 09:27 38.27925 13.40181 4337 ft 204 kts 248°
2026-05-05 09:28 38.27417 13.38560 4244 ft 190 kts 247°
2026-05-05 09:28 38.26935 13.37055 4148 ft 180 kts 246°
2026-05-05 09:28 38.26456 13.35589 4003 ft 178 kts 246°
2026-05-05 09:28 38.25991 13.34180 3752 ft 172 kts 245°
2026-05-05 09:29 38.25530 13.32791 3507 ft 163 kts 245°
2026-05-05 09:29 38.25106 13.31514 3264 ft 153 kts 245°
2026-05-05 09:29 38.24695 13.30281 3045 ft 151 kts 245°
2026-05-05 09:29 38.24282 13.29047 2842 ft 151 kts 244°
2026-05-05 09:30 38.23873 13.27827 2641 ft 151 kts 244°
2026-05-05 09:30 38.23461 13.26601 2443 ft 150 kts 245°
2026-05-05 09:30 38.23054 13.25383 2242 ft 149 kts 244°
2026-05-05 09:30 38.22654 13.24184 2047 ft 148 kts 244°
2026-05-05 09:31 38.22251 13.22983 1851 ft 147 kts 244°
2026-05-05 09:31 38.21849 13.21785 1656 ft 146 kts 244°
2026-05-05 09:31 38.21447 13.20588 1463 ft 146 kts 244°
2026-05-05 09:31 38.21051 13.19413 1284 ft 144 kts 245°
2026-05-05 09:32 38.20657 13.18251 1102 ft 143 kts 245°
2026-05-05 09:32 38.20259 13.17083 917 ft 143 kts 245°
2026-05-05 09:32 38.19864 13.15926 736 ft 143 kts 245°
2026-05-05 09:32 38.19475 13.14768 563 ft 142 kts 246°
2026-05-05 09:33 38.19101 13.13610 388 ft 142 kts 246°
2026-05-05 09:33 38.18712 13.12454 207 ft 141 kts 245°
2026-05-05 09:33 38.18332 13.11318 82 ft 136 kts 245°
2026-05-05 09:33 38.17996 13.10327 71 ft 99 kts 246°
2026-05-05 09:34 38.17794 13.09730 71 ft 50 kts 246°
2026-05-05 09:34 38.17701 13.09457 71 ft 29 kts 246°
2026-05-05 09:34 38.17635 13.09254 71 ft 18 kts 248°
2026-05-05 09:34 38.17590 13.09119 71 ft 16 kts 246°
2026-05-05 09:35 38.17545 13.08990 71 ft 15 kts 245°
2026-05-05 09:35 38.17487 13.08788 71 ft 8 kts 274°
2026-05-05 09:35 38.17532 13.08759 71 ft 9 kts 18°
2026-05-05 09:36 38.17587 13.08810 71 ft 10 kts 37°
2026-05-05 09:36 38.17647 13.08867 71 ft 11 kts 36°
2026-05-05 09:36 38.17711 13.08927 71 ft 10 kts 39°
2026-05-05 09:36 38.17755 13.09004 71 ft 11 kts 66°
2026-05-05 09:37 38.17793 13.09115 71 ft 17 kts 67°
2026-05-05 09:37 38.17852 13.09291 71 ft 25 kts 66°
2026-05-05 09:37 38.17921 13.09497 71 ft 24 kts 67°
2026-05-05 09:37 38.17987 13.09695 71 ft 23 kts 66°
2026-05-05 09:38 38.18051 13.09884 71 ft 22 kts 66°
2026-05-05 09:38 38.18113 13.10066 71 ft 22 kts 67°
2026-05-05 09:38 38.18173 13.10246 71 ft 21 kts 66°
2026-05-05 09:38 38.18232 13.10419 71 ft 21 kts 67°
2026-05-05 09:39 38.18288 13.10587 71 ft 20 kts 66°
2026-05-05 09:39 38.18344 13.10754 71 ft 20 kts 67°
2026-05-05 09:39 38.18394 13.10900 71 ft 11 kts 66°
2026-05-05 09:39 38.18426 13.10942 71 ft 6 kts
2026-05-05 09:40 38.18465 13.10907 71 ft 7 kts 301°
2026-05-05 09:40 38.18479 13.10836 71 ft 8 kts 288°
2026-05-05 09:40 38.18502 13.10764 71 ft 8 kts 289°
2026-05-05 09:40 38.18498 13.10693 71 ft 5 kts 247°
2026-05-05 09:41 38.18489 13.10655 71 ft 4 kts 278°
2026-05-05 09:41 38.18507 13.10628 71 ft 4 kts 336°
2026-05-05 09:41 38.18534 13.10616 71 ft 3 kts 337°
2026-05-05 09:41 38.18554 13.10605 71 ft 0 kts 337°